Lid_Strength_Index
1 -0 -1 -1 -1 -1 -1 -1 -1 -1 -1 -1 -1 -1 -1 -1 -1 -1 -1 -1 -1 -1 -2 -2 -2 -2 -2 -1 -1 -2 -1 -2 -2 -2 -2 -2 -2 -2 -2 -2 -1 -1 -2
0 -0 -1 -1 -1 -1 -1 -1 -1 -1 -1 -1 -1 -1 -1 -1 -1 -1 -1 -1 -1 -1 -1 -2 -2 -2 -1 -1 -1 -1 -1 -1 -2 -2 -2 -2 -2 -2 -2 -2 -2 -1 -2
0 -1 -1 -1 -1 -1 -1 -1 -1 -1 -1 -1 -1 -1 -1 -1 -1 -1 -1 -1 -1 -1 -2 -2 -2 -2 -1 -1 -1 -1 -1 -1 -1 -1 -2 -1 -0 -1 -2 -2 -2 -2 -2
-0 -1 -0 -1 -1 -1 -1 -1 -1 -1 -1 -1 -1 -1 -1 -1 -1 -1 -1 -1 -1 -1 -2 -1 -1 -1 -1 -1 -1 -1 -1 -1 -1 -1 -1 -1 -0 -1 -1 -2 -2 -2 -2
0 -0 -1 -1 -1 -1 -1 -1 -1 -1 -1 -1 -1 -1 -1 -1 -1 -1 -1 -1 -1 -1 -1 -1 -1 -1 -1 -1 -1 -1 -1 -1 -1 -1 -1 -0 0 -1 -1 -1 -1 -1 -2
0 -0 -1 -1 -1 -1 -1 -1 -1 -1 -1 -1 -1 -1 -1 -1 -1 -1 -1 -1 -1 -1 -1 -1 -1 -1 -1 -1 -1 -1 -1 -2 -2 -0 -1 -1 -0 -1 -1 -1 -1 -1 -2
0 0 -1 -1 -1 -1 -1 -1 -1 -1 -1 -1 -1 -1 -1 -1 -1 -1 -1 -1 -1 -1 -1 -1 -1 -1 -1 -1 -1 -2 -2 -2 -1 1 -0 0 0 -1 -1 -1 -1 -1 -2
0 -0 -0 -1 -1 -1 -1 -1 -1 -1 -1 -1 -1 -1 -1 -1 -1 -1 -1 -1 -1 -2 -1 -1 -1 -1 -1 -2 -2 -2 -2 -3 -1 1 -0 0 -1 -1 -1 -1 -0 -1 -2
0 0 -0 -1 -1 -1 -1 -1 -1 -1 -1 -1 -1 -1 -1 -1 -1 -1 -1 -1 -1 -1 -1 -1 -1 -1 -1 -2 -2 -2 -2 -3 -0 1 0 0 -1 -1 -1 -0 -0 -1 -1
0 0 0 -0 -0 -1 -1 -1 -1 -1 -1 -1 -1 -1 -1 -1 -1 -1 -1 -1 -1 -1 -2 -1 -2 -2 -2 -2 -2 -2 -3 -3 -0 2 -0 0 -1 -2 -1 -1 -1 -1 -1
1 0 -0 0 -0 -0 -0 -0 -1 -1 -1 -1 -1 -1 -1 -1 -1 -1 -1 -2 -1 -1 -1 -1 -2 -2 -2 -2 -2 -3 -3 -0 -0 -0 -0 -1 -1 -2 -1 -1 -1 -1 -1
4 3 1 -0 -0 -1 -0 -0 -0 -0 -1 -1 -1 -1 -1 -1 -1 -1 -1 -2 -1 -1 -1 -1 -1 -1 -1 -1 -1 -2 -0 -0 -0 -0 0 -1 -2 -2 -1 -1 -1 -1 -1
3 3 3 -0 0 1 0 -0 -0 -0 -0 -1 -1 -1 -1 -1 -1 -1 -1 -1 -1 -1 -0 -1 -1 -1 -0 -0 -0 -0 -0 -0 0 -0 -1 -2 -2 -2 -1 -1 -1 -1 -1
1 1 0 -0 -0 -0 1 -0 -0 -0 -0 -0 -0 -1 -1 -0 -0 -0 -0 -0 -0 -0 -0 -0 -0 -0 -0 -0 -0 -0 -0 -0 -0 -0 -1 -1 -1 -2 -1 -1 -1 -1 -1
1 1 0 -0 -0 -0 -0 -0 -0 -0 -0 -1 -0 -1 -1 0 0 -0 -0 -0 -0 -0 -0 -0 -0 -0 -0 -0 -0 -0 -0 -0 -0 -0 -0 -1 -1 -2 -2 -1 -1 -1 -1
1 1 0 0 -1 -0 -0 -0 -0 -0 -1 -0 -1 -1 -1 -0 -0 0 -0 0 -0 -0 -0 -0 0 0 0 -0 0 -0 -0 -0 -0 -0 -0 -1 -1 -1 -2 -1 -1 -0 -1
1 0 0 -0 -0 -0 -0 -0 -0 -0 -0 -0 -0 -2 -0 -1 -0 -0 0 0 -0 -1 -1 -0 0 0 0 0 0 0 -0 -0 -0 -0 -0 -0 -1 -1 -1 -2 -1 -0 -1
1 1 -0 -0 -0 -0 -0 -0 -0 -0 -0 -0 -0 -1 -1 -0 -1 0 0 0 -0 -0 -0 0 0 1 1 1 1 1 0 0 -0 -0 -0 -0 -0 -0 -1 -2 -1 -1 -1
1 0 -0 -0 0 0 -0 -0 -0 -0 -0 -0 -1 -0 -1 -0 -0 -0 0 0 -1 -0 0 0 1 1 1 1 1 1 0 0 0 -0 0 -0 -0 -0 -0 -1 -2 -1 -1
0 -0 -1 -0 -0 -0 -0 -0 -0 0 -0 -0 -0 -0 -1 -0 -0 0 0 0 -0 0 1 1 1 1 1 1 1 1 1 0 0 0 0 -0 -0 -0 -0 -0 -0 -1 0
0 -1 -0 0 0 0 0 1 1 1 1 0 0 -0 -0 -0 -1 -0 0 0 0 1 1 1 1 1 1 1 2 2 2 1 1 1 0 -0 0 0 0 1 1 2 3
1 0 -1 0 0 0 0 0 0 1 0 0 0 -0 -0 -0 -0 0 0 0 0 1 1 1 1 2 1 1 3 3 5 3 2 2 1 0 1 1 1 2 3 5 6
1 1 1 -0 -1 -0 -0 0 0 0 1 1 2 1 0 -0 -0 0 0 0 0 0 1 1 1 2 3 1 1 3 6 6 4 4 6 3 4 6 6 6 6 6 6
1 0 0 0 -0 -1 -1 0 1 2 2 1 1 1 0 -0 -0 -0 0 0 0 0 1 1 1 1 2 3 2 1 2 3 5 6 6 8 7 7 7 6 6 5 5
1 1 0 -0 -1 -2 -2 -1 1 1 1 1 1 1 1 0 -0 -0 1 4 5 0 0 1 1 1 1 2 2 2 2 2 2 4 7 9 8 7 7 6 6 6 5
1 1 1 1 -1 -1 -1 -1 1 1 1 2 1 2 1 1 0 0 1 3 2 2 1 1 1 1 1 1 2 2 3 4 4 4 6 7 9 9 7 6 6 6 5